Location: Lancaster
(34.6980°N, 118.1360°W)
Time: 09:34:47
(UTC-08:00)

Vanguard 1 - All Passes

Search period start: 19 November 2017 00:00
Search period end: 29 November 2017 00:00
Orbit: 650 x 3834 km, 34.2° (Epoch: 17 November)

Date Brightness Start Highest point End Pass type
(mag) Time Alt. Az. Time Alt. Az. Time Alt. Az.
19 Nov - 00:35:01 10° SW 00:37:34 11° SSW 00:40:26 10° SSW night (unlit)
19 Nov - 13:12:19 10° S 13:15:25 13° SSE 13:18:03 10° SE daylight
19 Nov - 15:30:30 10° SW 15:36:01 40° SSE 15:40:13 10° E daylight
19 Nov - 17:51:20 10° W 17:55:50 86° S 18:00:40 10° E visible
19 Nov - 20:11:13 10° W 20:15:50 58° SSW 20:22:43 10° ESE visible
19 Nov - 22:31:29 10° WSW 22:36:36 24° SSW 22:44:13 10° SSE night (unlit)
20 Nov - 13:31:14 10° SSW 13:36:37 19° SSE 13:40:36 10° ESE daylight
20 Nov - 15:51:23 10° WSW 15:56:59 54° SSE 16:01:18 10° E daylight
20 Nov - 18:12:23 10° W 18:16:51 86° S 18:21:50 10° E visible
20 Nov - 20:32:15 10° W 20:36:50 45° SSW 20:43:44 10° SE visible
20 Nov - 22:53:31 10° WSW 22:57:52 17° SSW 23:03:42 10° S night (unlit)
21 Nov - 13:51:12 10° SSW 13:57:45 27° SSE 14:02:15 10° E daylight
21 Nov - 16:12:28 10° WSW 16:17:58 69° SSE 16:22:20 10° E daylight
21 Nov - 18:33:26 10° W 18:37:51 79° S 18:42:59 10° ESE visible
21 Nov - 20:53:24 10° W 20:57:53 33° SSW 21:04:29 10° SE visible
21 Nov - 23:17:21 10° SW 23:19:10 11° SSW 23:21:12 10° SSW night (unlit)
22 Nov - 11:53:17 10° S 11:57:29 13° SSE 12:00:54 10° SE daylight
22 Nov - 14:11:42 10° SW 14:18:51 37° SSE 14:23:33 10° E daylight
22 Nov - 16:33:37 10° W 16:38:57 81° S 16:43:20 10° E daylight
22 Nov - 18:54:29 10° W 18:58:50 66° SSW 19:04:06 10° ESE visible
22 Nov - 21:14:46 10° WSW 21:18:58 24° SSW 21:24:51 10° SSE night (unlit)
23 Nov - 12:11:49 10° SSW 12:18:48 19° SSE 12:23:45 10° ESE daylight
23 Nov - 14:32:33 10° SW 14:39:54 49° SSE 14:44:38 10° E daylight
23 Nov - 16:54:48 10° W 16:59:57 86° S 17:04:23 10° E daylight
23 Nov - 19:15:31 10° W 19:19:47 51° SSW 19:25:06 10° ESE visible
23 Nov - 21:36:36 10° WSW 21:40:06 17° SSW 21:44:35 10° SSE night (unlit)
24 Nov - 12:31:32 10° SSW 12:40:04 27° SSE 12:45:35 10° E daylight
24 Nov - 14:53:38 10° WSW 15:00:56 62° SSE 15:05:39 10° E daylight
24 Nov - 17:15:59 10° W 17:20:58 85° S 17:25:25 10° E visible
24 Nov - 19:36:39 10° W 19:40:45 37° SSW 19:45:55 10° SE visible
24 Nov - 22:00:11 10° SW 22:01:16 10° SSW 22:02:26 10° SSW night (unlit)
25 Nov - 10:33:42 10° S 10:39:01 13° SSE 10:43:19 10° SE daylight
25 Nov - 12:51:52 10° SW 13:01:16 36° SSE 13:06:59 10° E daylight
25 Nov - 15:14:53 10° WSW 15:21:57 75° S 15:26:36 10° E daylight
25 Nov - 17:37:08 10° W 17:41:57 76° S 17:46:27 10° ESE visible
25 Nov - 19:57:56 10° W 20:01:43 26° SSW 20:06:25 10° SSE visible
26 Nov - 10:51:40 10° SSW 11:00:28 19° SSE 11:06:37 10° ESE daylight
26 Nov - 13:12:37 10° SW 13:22:25 46° SSE 13:28:08 10° E daylight
26 Nov - 15:36:13 10° W 15:42:58 84° S 15:47:34 10° E daylight
26 Nov - 17:58:17 10° W 18:02:55 61° SSW 18:07:25 10° ESE visible
26 Nov - 20:19:35 10° WSW 20:22:41 17° SSW 20:26:25 10° SSE visible
27 Nov - 11:11:03 10° SSW 11:21:50 27° SSE 11:28:43 10° E daylight
27 Nov - 13:33:41 10° WSW 13:43:32 58° SSE 13:49:10 10° E daylight
27 Nov - 15:57:34 10° W 16:04:00 87° S 16:08:32 10° E daylight
27 Nov - 18:19:27 10° W 18:23:50 45° SSW 18:28:15 10° SE visible
27 Nov - 20:42:29 10° SW 20:43:43 11° SSW 20:45:01 10° SSW visible
28 Nov - 09:14:09 10° SSE 09:19:55 13° SSE 09:24:44 10° SE daylight
28 Nov - 11:31:08 10° SW 11:43:09 35° SSE 11:50:16 10° E daylight
28 Nov - 13:54:58 10° WSW 14:04:37 69° SSE 14:10:07 10° E daylight
28 Nov - 16:18:54 10° W 16:25:02 84° S 16:29:29 10° E daylight
28 Nov - 18:40:42 10° W 18:44:42 31° SSW 18:48:53 10° SE visible
